Location: Eaglesham
(55.7833°N, 117.9000°W)
Time: 08:25:56
(UTC+00:00)

ISS - Pass Details

Date: 02 December 2021
Orbit: 413 x 422 km, 51.6° (Epoch: 23 January)

Event Time Altitude Azimuth Distance (km) Brightness Sun altitude
Rises 02:55:38 0° 273° (W) 2,384 1.3 -28.4°
Reaches altitude 10° 02:58:10 10° 254° (WSW) 1,513 -0.1 -28.8°
Enters shadow 02:59:10 15° 240° (WSW) 1,261 -0.7 -28.9°
